Simultaneous Nadir Overpasses (SNOs) Predictions

Prediction of SNOs between AURA and NPP Satellite Orbit:

Table of predicted SNOs for the next 14.0 days since TLE Epoch: 1/17/2014
Index Date (AURA) Time (AURA) Lat,Lon (AURA) SZA (AURA ) Date (NPP) Time (NPP) Lat,Lon (NPP) SZA (NPP ) Distance(km) Time Diff (sec)
1 01/19/2014 09:46:53 78.49, -75.74 114.18 01/19/2014 09:46:24 78.48, -75.78 114.21 0.80 29
2 01/19/2014 10:36:12 -78.84, 93.79 66.28 01/19/2014 10:37:00 -78.83, 93.73 66.31 1.17 48
3 01/22/2014 02:03:24 78.59, 40.67 113.51 01/22/2014 02:03:18 78.59, 40.62 113.52 1.13 6
4 01/22/2014 02:52:43 -78.94,-149.74 66.96 01/22/2014 02:53:54 -78.93,-149.81 67.00 1.60 71
5 01/24/2014 17:30:45 -78.22, -13.01 66.60 01/24/2014 17:29:41 -78.21, -13.11 66.53 2.55 64
6 01/24/2014 18:19:59 78.72, 157.20 112.76 01/24/2014 18:20:12 78.72, 157.25 112.74 1.27 13
7 01/27/2014 09:47:21 -78.46, 104.01 67.54 01/27/2014 09:46:32 -78.47, 104.13 67.52 2.95 49
8 01/27/2014 10:36:40 78.74, -86.84 112.10 01/27/2014 10:37:09 78.74, -86.85 112.07 0.21 29
9 01/30/2014 02:04:08 -78.38,-140.59 68.11 01/30/2014 02:03:32 -78.37,-140.65 68.06 1.37 36




NCC Satellite Simultaneous Nadir Overpasses (SNOs) Prediction Service
